Home   Weather   Bogota   Past weeks
Flag for Colombia

Past Weather in Bogota, Colombia — Yesterday and Last 2 Weeks

Now
52 °F

Passing clouds.


Feels Like: 52 °F
Forecast: 60 / 51 °F
Wind: 2 mph from North

Location: Bogota / Eldorado

Current Time: Jan 21, 2020 at 10:42:20 pm

Latest Report: Jan 21, 2020 at 10:00 pm


Visibility: N/A

Pressure: 30.36 "Hg (22.16 "Hg at 2618m altitude)

Humidity: 94%

Dew Point: 50 °F

Location of BogotaLocation

Past Weather in Bogota — Graph

°F

Bogota Temperature Yesterday

Maximum temperature yesterday: 68 °F (at 12:00 pm)
Minimum temperature yesterday: 50 °F (at 3:00 am)
Average temperature yesterday: 58 °F

High & Low Weather Summary for the Past Weeks

 TemperatureHumidityPressure
High73 °F (Jan 8, 2:00 pm)100% (Jan 7, 10:00 pm)30.42 "Hg (Jan 7, 10:00 pm)
Low37 °F (Jan 8, 5:30 am)23% (Jan 8, 2:00 pm)30.01 "Hg (Jan 21, 5:00 am)
Average57 °F69%30.32 "Hg
* Reported Jan 6 9:00 pm — Jan 21 9:00 pm, Bogota. Weather by CustomWeather, © 2020

Note: Actual official high and low records may vary slightly from our data, if they occured in-between our weather recording intervals... More about our weather records

Bogota Weather History for the Previous 24 Hours

Scroll right to see more
 ConditionsComfort  
Time TempWeatherWind HumidityBarometerVisibility
9:00 pm
Tue, Jan 21
54 °FPassing clouds.3 mph88%30.35 "HgN/A
8:00 pm55 °FPassing clouds.8 mph82%30.31 "HgN/A
7:00 pm57 °FPassing clouds.8 mph82%30.29 "HgN/A
6:00 pm59 °FPartly sunny.8 mph77%30.28 "HgN/A
5:00 pm63 °FBroken clouds.5 mph64%30.27 "HgN/A
4:00 pm63 °FBroken clouds.6 mph64%30.27 "HgN/A
3:00 pm61 °FBroken clouds.9 mph72%30.27 "HgN/A
2:00 pm61 °FBroken clouds.6 mph68%30.30 "Hg5 mi
1:00 pm64 °FScattered clouds.12 mph60%30.31 "Hg4 mi
12:00 pm66 °FScattered clouds.12 mph60%30.32 "Hg4 mi
11:00 am68 °FScattered clouds.3 mph56%30.35 "Hg6 mi
10:00 am66 °FScattered clouds.5 mph60%30.38 "Hg5 mi
9:00 am63 °FScattered clouds.3 mph68%30.37 "Hg5 mi
8:00 am57 °FScattered clouds.6 mph82%30.36 "Hg6 mi
7:00 am54 °FScattered clouds.2 mph88%30.34 "Hg6 mi
6:00 am54 °FPassing clouds.6 mph88%30.32 "HgN/A
5:30 am54 °FPartly cloudy.5 mph88%30.32 "HgN/A
5:00 am54 °FPartly cloudy.6 mph94%30.01 "HgN/A
4:00 am54 °FPassing clouds.2 mph88%30.30 "HgN/A
3:00 am55 °FPartly cloudy.2 mph82%30.30 "HgN/A
2:00 am55 °FPartly cloudy.2 mph88%30.32 "HgN/A
1:00 am55 °FPassing clouds.3 mph88%30.34 "HgN/A
12:00 am55 °FPassing clouds.6 mph88%30.36 "HgN/A
11:00 pm
Mon, Jan 20
52 °FPassing clouds.2 mph88%30.37 "HgN/A
10:00 pm54 °FPassing clouds.2 mph88%30.36 "HgN/A
Weather by CustomWeather, © 2020

See weather overview

Advertising